Regional Weather Roundup
Issued by NWS

Home | Current Version | Previous Version | Text Only | Print | Product List | Glossary On
Versions: 1 2 3 4 5 6 7 8 9 10 11 12 13 14 15 16 17 18 19 20 21 22 23 24 25 26 27 28 29 30 31 32 33 34 35 36 37 38 39 40 41 42 43 44 45 46 47 48 49 50
000
ASUS43 KDTX 160410
RWRMI
MICHIGAN HOURLY REGIONAL WEATHER ROUNDUP
NATIONAL WEATHER SERVICE DETROIT/PONTIAC MI
1200 AM EDT WED APR 16 2014

NOTE: "FAIR" INDICATES FEW OR NO CLOUDS BELOW 12,000 FEET WITH NO
SIGNIFICANT WEATHER AND/OR OBSTRUCTION TO VISIBILITY.

MIZ047>049-052>055-059>063-066>070-074>076-081>083-160500-
SOUTHEAST LOWER MICHIGAN

CITY           SKY/WX    TMP DP  RH WIND       PRES   REMARKS
ADRIAN         CLEAR     26   9  48 W3        30.25R
ALMA           CLEAR     27  13  56 CALM      30.23R
ANN ARBOR      CLEAR     25  11  55 CALM      30.23R
BAD AXE        CLEAR     21  15  77 CALM      30.21R
DETROIT CITY   CLEAR     30  11  45 CALM      30.25R
DETROIT        PTCLDY    28  12  51 CALM      30.25R
FLINT          CLEAR     23  13  65 SW3       30.23R
GROSSE ILE     CLEAR     28  16  59 CALM      30.23S
HILLSDALE      CLEAR     23  11  60 CALM      30.22R
HOWELL         CLEAR     25   9  51 CALM      30.22R

CITY           SKY/WX    TMP DP  RH WIND       PRES   REMARKS
JACKSON        CLEAR     23  10  57 W3        30.23R
LAMBERTVILLE   CLEAR     30  14  51 CALM      30.25S
LANSING        CLEAR     25  11  55 SW3       30.23R
LAPEER         NOT AVBL
MASON          CLEAR     25  17  73 CALM      30.23R
MONROE         CLEAR     27  18  69 CALM      30.23S
MT. CLEMENS    CLEAR     26  13  59 N2        30.23R
PONTIAC        CLEAR     25  11  55 NW3       30.21R
PORT HOPE        N/A     27   9  46 W3        30.20R
PORT HURON     CLEAR     21  18  86 CALM      30.24R
TRI CITIES     CLEAR     28  15  58 SW6       30.23R
YPSILANTI      CLEAR     29  12  49 W3        30.24R
$$
MIZ043>046-050>051-056>058-064>065-071>073-077>080-160500-
SOUTHWEST LOWER MICHIGAN

CITY           SKY/WX    TMP DP  RH WIND       PRES   REMARKS
BATTLE CREEK   CLEAR     25  12  58 CALM      30.23R
BENTON HARBOR  CLEAR     25  16  68 CALM      30.23S
BIG RAPIDS     CLEAR     26  15  64 W6        30.20R
COLDWATER      CLEAR     24  14  64 CALM      30.23S
HOLLAND        CLEAR     26  18  71 CALM      30.24S
GRAND RAPIDS   CLEAR     27  15  61 W6        30.23S
KALAMAZOO      CLEAR     26  12  55 CALM      30.23S
MARSHALL       CLEAR     23  10  59 CALM      30.23R
MUSKEGON       CLEAR     26  15  63 S3        30.24S
$$
MIZ016>042-160500-
NORTHERN LOWER MICHIGAN

CITY           SKY/WX    TMP DP  RH WIND       PRES   REMARKS
ALPENA         CLEAR     17  15  92 CALM      30.20R
BEAVER ISLAND  CLEAR     15  13  92 CALM      30.20S
BELLAIRE       CLOUDY    27  18  69 SW5       30.19S
CADILLAC       CLEAR     20  14  78 SW6       30.16R
CHARLEVOIX     LGT SNOW  24  22  94 N6        30.23R
FRANKFORT      CLOUDY    29  23  78 SW6       30.20R
GAYLORD        MOCLDY    16  10  77 CALM      30.15R
GRAYLING       MOCLDY    14  11  89 CALM      30.18R
HARBOR SPRINGS LGT SNOW  24  21  88 N3        30.19R
HOUGHTON LAKE  CLEAR     23  14  68 W5        30.18R
MANISTEE       MOCLDY    27  18  69 SW3       30.21S
OSCODA         CLEAR     18  11  74 CALM      30.20S
PELLSTON       CLOUDY    20  16  84 NW5       30.20R
TRAVERSE CITY  LGT SNOW  26  18  71 W9        30.20R
$$
MIZ007>008-015-160500-
EASTERN UPPER MICHIGAN

CITY           SKY/WX    TMP DP  RH WIND       PRES   REMARKS
KINROSS        CLEAR     12  10  92 W3        30.18R
MACKINAC ISLAN PTCLDY    19  12  76 CALM      30.19R
NEWBERRY       CLEAR      4   2  91 SW5       30.17R
S. S. MARIE    CLEAR     14   8  77 W5        30.17R
$$
MIZ004>006-011>014-085-160500-
CENTRAL UPPER MICHIGAN

CITY           SKY/WX    TMP DP  RH WIND       PRES   REMARKS
MANISTIQUE     CLEAR     11   9  92 CALM      30.19R
ESCANABA       CLEAR     19  12  73 NE3       30.18R
MENOMINEE      CLEAR     23  18  80 CALM      30.17S
SAWYER-GWINN   CLEAR      7   4  88 CALM      30.14R FOG
$$
MIZ001>003-009>011-084-160500-
WESTERN UPPER MICHIGAN

CITY           SKY/WX    TMP DP  RH WIND       PRES   REMARKS
IRON MOUNTAIN  CLEAR     16   9  74 CALM      30.13R
HOUGHTON       CLEAR     17   0  47 CALM      30.11R
COPPER HARBOR    N/A     20   7  57 SW3       30.14R
IRONWOOD       CLEAR     18   7  62 CALM      30.08S
$$

ABBREVIATIONS USED IN REMARKS
   TC - TEMPERATURE IN CELSIUS
  WCI - WIND CHILL INDEX
   HX - HEAT INDEX
  VSB - VISIBILITY




USA.gov is the U.S. government's official web portal to all federal, state and local government web resources and services.